| time (UTC) | temp F | wind direction | speed MPH | gust MPH | rain 1hr in | rain 24hr in | rain mn in | humidity % | barometer mb |
| 20260507180002 | 51 | 341 | 9.0 | 20.0 | 0.00 | 0.00 | 0.00 | 35 | 1009.7 |
| 20260507175038 | 51 | 278 | 10.0 | 21.0 | 0.00 | 0.00 | 0.00 | 36 | 1009.6 |
| 20260507174604 | 50 | 307 | 9.0 | 22.0 | 0.00 | 0.00 | 0.00 | 38 | 1009.8 |
| 20260507174044 | 51 | 331 | 10.0 | 20.0 | 0.00 | 0.00 | 0.00 | 35 | 1009.7 |
| 20260507173025 | 51 | 281 | 10.0 | 19.0 | 0.00 | 0.00 | 0.00 | 37 | 1009.9 |
| 20260507173007 | 50 | 264 | 12.0 | 20.0 | 0.00 | 0.00 | 0.00 | 35 | 1009.9 |
| 20260507172046 | 51 | 297 | 7.0 | 14.0 | 0.00 | 0.00 | 0.00 | 35 | 1009.9 |
| 20260507171606 | 50 | 308 | 8.0 | 15.0 | 0.00 | 0.00 | 0.00 | 39 | 1010.0 |
| 20260507171014 | 50 | 347 | 5.0 | 15.0 | 0.00 | 0.00 | 0.00 | 39 | 1010.0 |
| 20260507170003 | 50 | 344 | 10.0 | 17.0 | 0.00 | 0.00 | 0.00 | 40 | 1010.2 |
| 20260507165940 | 50 | 332 | 8.0 | 16.0 | 0.00 | 0.00 | 0.00 | 40 | 1010.1 |
| 20260507165001 | 50 | 342 | 6.0 | 16.0 | 0.00 | 0.00 | 0.00 | 39 | 1010.2 |
| 20260507164607 | 50 | 334 | 4.0 | 13.0 | 0.00 | 0.00 | 0.00 | 45 | 1010.4 |
| 20260507163002 | 49 | 322 | 12.0 | 17.0 | 0.00 | 0.00 | 0.00 | 41 | 1010.6 |
| 20260507161725 | 49 | 283 | 4.0 | 14.0 | 0.00 | 0.00 | 0.00 | 41 | 1010.5 |
| 20260507160703 | 48 | 49 | 7.0 | 15.0 | 0.00 | 0.00 | 0.00 | 41 | 1010.6 |
| 20260507160003 | 48 | 283 | 10.0 | 16.0 | 0.00 | 0.00 | 0.00 | 40 | 1010.7 |
| 20260507155629 | 49 | 312 | 3.0 | 12.0 | 0.00 | 0.00 | 0.00 | 41 | 1010.6 |
| 20260507154503 | 48 | 125 | 1.0 | 6.0 | 0.00 | 0.00 | 0.00 | 43 | 1010.7 |
| 20260507153543 | 47 | 308 | 4.0 | 10.0 | 0.00 | 0.00 | 0.00 | 45 | 1010.8 |
| 20260507153111 | 47 | 281 | 3.0 | 9.0 | 0.00 | 0.00 | 0.00 | 44 | 1010.8 |
| 20260507152520 | 47 | 295 | 5.0 | 10.0 | 0.00 | 0.00 | 0.00 | 46 | 1010.8 |
| 20260507151502 | 47 | 309 | 4.0 | 8.0 | 0.00 | 0.00 | 0.00 | 48 | 1011.0 |
| 20260507151452 | 48 | 278 | 2.0 | 7.0 | 0.00 | 0.00 | 0.00 | 48 | 1010.9 |
| 20260507150501 | 47 | 333 | 1.0 | 7.0 | 0.00 | 0.00 | 0.00 | 45 | 1010.9 |
| 20260507145434 | 47 | 200 | 1.0 | 6.0 | 0.00 | 0.00 | 0.00 | 49 | 1010.9 |
| 20260507144506 | 47 | 344 | 1.0 | 6.0 | 0.00 | 0.00 | 0.00 | 48 | 1011.1 |
| 20260507143114 | 45 | 319 | 2.0 | 5.0 | 0.00 | 0.00 | 0.00 | 53 | 1011.1 |
| 20260507141502 | 44 | 312 | 3.0 | 6.0 | 0.00 | 0.00 | 0.00 | 54 | 1011.2 |
| 20260507141004 | 44 | 323 | 1.0 | 5.0 | 0.00 | 0.00 | 0.00 | 56 | 1011.2 |
| 20260507140017 | 44 | 340 | 0.0 | 4.0 | 0.00 | 0.00 | 0.00 | 62 | 1011.3 |
| 20260507135038 | 43 | 283 | 0.0 | 3.0 | 0.00 | 0.00 | 0.00 | 62 | 1011.4 |
| 20260507134614 | 42 | 259 | 0.0 | 2.0 | 0.00 | 0.00 | 0.00 | 65 | 1011.4 |
| 20260507134051 | 42 | 288 | 0.0 | 2.0 | 0.00 | 0.00 | 0.00 | 65 | 1011.3 |
| 20260507133106 | 42 | 285 | 0.0 | 2.0 | 0.00 | 0.00 | 0.00 | 63 | 1011.3 |
| 20260507133002 | 42 | 297 | 1.0 | 3.0 | 0.00 | 0.00 | 0.00 | 63 | 1011.4 |
| 20260507132045 | 43 | 86 | 0.0 | 1.0 | 0.00 | 0.00 | 0.00 | 64 | 1011.3 |
| 20260507131602 | 42 | 106 | 0.0 | 1.0 | 0.00 | 0.00 | 0.00 | 66 | 1011.4 |
| 20260507131044 | 42 | 124 | 0.0 | 0.0 | 0.00 | 0.00 | 0.00 | 67 | 1011.5 |
| 20260507130018 | 40 | 103 | 0.0 | 1.0 | 0.00 | 0.00 | 0.00 | 71 | 1011.5 |
| 20260507130002 | 40 | 103 | 0.0 | 2.0 | 0.00 | 0.00 | 0.00 | 71 | 1011.6 |
| 20260507124602 | 38 | 103 | 0.0 | 1.0 | 0.00 | 0.00 | 0.00 | 75 | 1011.6 |
| 20260507123824 | 37 | 103 | 0.0 | 0.0 | 0.00 | 0.00 | 0.00 | 79 | 1011.6 |
| 20260507123006 | 34 | 103 | 0.0 | 1.0 | 0.00 | 0.00 | 0.00 | 83 | 1011.7 |
| 20260507122844 | 34 | 103 | 0.0 | 0.0 | 0.00 | 0.00 | 0.00 | 83 | 1011.6 |
| 20260507121621 | 31 | 103 | 0.0 | 2.0 | 0.00 | 0.00 | 0.00 | 85 | 1011.7 |
| 20260507120657 | 31 | 106 | 0.0 | 1.0 | 0.00 | 0.00 | 0.00 | 86 | 1011.6 |
| 20260507120002 | 30 | 150 | 0.0 | 1.0 | 0.00 | 0.00 | 0.00 | 85 | 1011.7 |
| 20260507115623 | 31 | 153 | 0.0 | 0.0 | 0.00 | 0.00 | 0.00 | 85 | 1011.7 |
| 20260507114640 | 29 | 153 | 0.0 | 1.0 | 0.00 | 0.00 | 0.00 | 87 | 1011.5 |
| 20260507114631 | 30 | 153 | 0.0 | 0.0 | 0.00 | 0.00 | 0.00 | 87 | 1011.5 |
| 20260507113554 | 28 | 153 | 0.0 | 0.0 | 0.00 | 0.00 | 0.00 | 88 | 1011.5 |
| 20260507113009 | 28 | 153 | 1.0 | 1.0 | 0.00 | 0.00 | 0.00 | 89 | 1011.6 |
| 20260507112541 | 28 | 153 | 0.0 | 0.0 | 0.00 | 0.00 | 0.00 | 89 | 1011.5 |
| 20260507111604 | 27 | 167 | 0.0 | 1.0 | 0.00 | 0.00 | 0.00 | 89 | 1011.5 |
| 20260507110412 | 27 | 167 | 0.0 | 0.0 | 0.00 | 0.00 | 0.00 | 90 | 1011.5 |
| 20260507110002 | 27 | 167 | 0.0 | 0.0 | 0.00 | 0.00 | 0.00 | 89 | 1011.5 |
| 20260507105411 | 27 | 167 | 0.0 | 0.0 | 0.00 | 0.00 | 0.00 | 90 | 1011.5 |
| 20260507104602 | 26 | 167 | 0.0 | 0.0 | 0.00 | 0.00 | 0.00 | 89 | 1011.5 |
| 20260507103002 | 27 | 167 | 0.0 | 0.0 | 0.00 | 0.00 | 0.00 | 89 | 1011.6 |
| 20260507102217 | 27 | 167 | 0.0 | 0.0 | 0.00 | 0.00 | 0.00 | 89 | 1011.6 |
| 20260507101614 | 27 | 167 | 0.0 | 0.0 | 0.00 | 0.00 | 0.00 | 89 | 1011.7 |
| 20260507101151 | 27 | 167 | 0.0 | 0.0 | 0.00 | 0.00 | 0.00 | 88 | 1011.6 |
| 20260507100152 | 28 | 167 | 0.0 | 0.0 | 0.00 | 0.00 | 0.00 | 88 | 1011.6 |
| 20260507100002 | 28 | 167 | 0.0 | 0.0 | 0.00 | 0.00 | 0.00 | 88 | 1011.7 |
| 20260507095137 | 28 | 167 | 0.0 | 0.0 | 0.00 | 0.00 | 0.00 | 88 | 1011.5 |
| 20260507094606 | 28 | 167 | 0.0 | 0.0 | 0.00 | 0.00 | 0.00 | 87 | 1011.6 |
| 20260507093048 | 29 | 167 | 0.0 | 0.0 | 0.00 | 0.00 | 0.00 | 87 | 1011.5 |
| 20260507093003 | 28 | 167 | 0.0 | 0.0 | 0.00 | 0.00 | 0.00 | 87 | 1011.5 |
| 20260507092101 | 29 | 167 | 0.0 | 0.0 | 0.00 | 0.00 | 0.00 | 87 | 1011.6 |
| 20260507091603 | 29 | 167 | 0.0 | 0.0 | 0.00 | 0.00 | 0.00 | 87 | 1011.6 |
| 20260507091111 | 29 | 167 | 0.0 | 0.0 | 0.00 | 0.00 | 0.00 | 86 | 1011.6 |
| 20260507090049 | 29 | 167 | 0.0 | 0.0 | 0.00 | 0.00 | 0.00 | 86 | 1011.7 |
| 20260507090006 | 29 | 167 | 0.0 | 0.0 | 0.00 | 0.00 | 0.00 | 86 | 1011.7 |
| 20260507084603 | 30 | 167 | 0.0 | 0.0 | 0.00 | 0.00 | 0.00 | 84 | 1011.7 |
| 20260507083945 | 30 | 167 | 0.0 | 0.0 | 0.00 | 0.00 | 0.00 | 84 | 1011.7 |
| 20260507083003 | 30 | 167 | 0.0 | 0.0 | 0.00 | 0.00 | 0.00 | 84 | 1011.8 |
| 20260507082955 | 31 | 167 | 0.0 | 0.0 | 0.00 | 0.00 | 0.00 | 84 | 1011.7 |
| 20260507081602 | 30 | 167 | 0.0 | 0.0 | 0.00 | 0.00 | 0.00 | 85 | 1011.7 |
| 20260507080803 | 31 | 167 | 0.0 | 0.0 | 0.00 | 0.00 | 0.00 | 83 | 1011.6 |
| 20260507080120 | 32 | 167 | 0.0 | 0.0 | 0.00 | 0.00 | 0.00 | 83 | 1011.6 |
| 20260507075813 | 32 | 167 | 0.0 | 0.0 | 0.00 | 0.00 | 0.00 | 83 | 1011.6 |
| 20260507074821 | 33 | 167 | 0.0 | 0.0 | 0.00 | 0.00 | 0.00 | 83 | 1011.6 |
| 20260507074502 | 32 | 167 | 0.0 | 1.0 | 0.00 | 0.00 | 0.00 | 83 | 1011.7 |
| 20260507073827 | 33 | 167 | 0.0 | 0.0 | 0.00 | 0.00 | 0.00 | 81 | 1011.8 |
| 20260507073108 | 33 | 167 | 0.0 | 0.0 | 0.00 | 0.00 | 0.00 | 80 | 1011.9 |
| 20260507072755 | 33 | 167 | 0.0 | 0.0 | 0.00 | 0.00 | 0.00 | 80 | 1011.9 |
| 20260507071809 | 34 | 167 | 0.0 | 0.0 | 0.00 | 0.00 | 0.00 | 79 | 1011.9 |
| 20260507071502 | 34 | 167 | 0.0 | 1.0 | 0.00 | 0.00 | 0.00 | 80 | 1012.0 |
| 20260507070755 | 34 | 167 | 0.0 | 0.0 | 0.00 | 0.00 | 0.00 | 79 | 1012.0 |
| 20260507070104 | 34 | 167 | 0.0 | 2.0 | 0.00 | 0.00 | 0.00 | 79 | 1012.2 |
| 20260507065730 | 35 | 167 | 0.0 | 1.0 | 0.00 | 0.00 | 0.00 | 79 | 1012.2 |
| 20260507064728 | 35 | 167 | 0.0 | 0.0 | 0.00 | 0.00 | 0.00 | 79 | 1012.3 |
| 20260507064502 | 35 | 167 | 0.0 | 2.0 | 0.00 | 0.00 | 0.00 | 79 | 1012.3 |
| 20260507063745 | 35 | 167 | 0.0 | 1.0 | 0.00 | 0.00 | 0.00 | 79 | 1012.3 |
| 20260507063107 | 35 | 167 | 1.0 | 2.0 | 0.00 | 0.00 | 0.00 | 80 | 1012.4 |
| 20260507061548 | 36 | 200 | 0.0 | 1.0 | 0.00 | 0.00 | 0.00 | 79 | 1012.5 |
| 20260507061503 | 36 | 200 | 1.0 | 2.0 | 0.00 | 0.00 | 0.00 | 79 | 1012.6 |
| 20260507055344 | 37 | 199 | 1.0 | 1.0 | 0.00 | 0.00 | 0.00 | 77 | 1012.5 |
| 20260507054511 | 36 | 199 | 1.0 | 2.0 | 0.00 | 0.00 | 0.00 | 76 | 1012.6 |
| 20260507053209 | 37 | 199 | 0.0 | 0.0 | 0.00 | 0.00 | 0.00 | 74 | 1012.5 |
| 20260507053123 | 37 | 199 | 1.0 | 1.0 | 0.00 | 0.00 | 0.00 | 75 | 1012.6 |
| 20260507052155 | 37 | 199 | 0.0 | 0.0 | 0.00 | 0.00 | 0.00 | 73 | 1012.6 |
| 20260507051503 | 37 | 199 | 0.0 | 2.0 | 0.00 | 0.00 | 0.00 | 75 | 1012.7 |
| 20260507051152 | 37 | 199 | 0.0 | 1.0 | 0.00 | 0.00 | 0.00 | 74 | 1012.6 |
| 20260507050116 | 37 | 199 | 0.0 | 0.0 | 0.00 | 0.00 | 0.00 | 72 | 1012.8 |
| 20260507045055 | 38 | 199 | 0.0 | 0.0 | 0.00 | 0.00 | 0.00 | 70 | 1012.8 |
| 20260507044502 | 37 | 199 | 0.0 | 0.0 | 0.00 | 0.00 | 0.00 | 70 | 1012.9 |
| 20260507044055 | 38 | 199 | 0.0 | 0.0 | 0.00 | 0.00 | 0.00 | 71 | 1012.8 |
| 20260507043103 | 38 | 199 | 0.0 | 0.0 | 0.00 | 0.00 | 0.00 | 70 | 1012.9 |
| 20260507043019 | 38 | 199 | 0.0 | 0.0 | 0.00 | 0.00 | 0.00 | 70 | 1012.8 |
| 20260507042033 | 39 | 199 | 0.0 | 0.0 | 0.00 | 0.00 | 0.00 | 69 | 1012.8 |
| 20260507041503 | 38 | 199 | 0.0 | 2.0 | 0.00 | 0.00 | 0.00 | 68 | 1013.0 |
| 20260507041012 | 38 | 199 | 0.0 | 0.0 | 0.00 | 0.00 | 0.00 | 68 | 1013.0 |
| 20260507035940 | 38 | 199 | 0.0 | 1.0 | 0.00 | 0.00 | 0.00 | 68 | 1013.0 |
| 20260507034503 | 38 | 199 | 0.0 | 0.0 | 0.00 | 0.00 | 0.00 | 69 | 1013.2 |
| 20260507033112 | 38 | 199 | 0.0 | 3.0 | 0.00 | 0.00 | 0.00 | 68 | 1013.2 |
| 20260507032700 | 39 | 199 | 1.0 | 0.0 | 0.00 | 0.00 | 0.00 | 67 | 1013.1 |
| 20260507031502 | 38 | 321 | 0.0 | 1.0 | 0.00 | 0.00 | 0.00 | 69 | 1013.3 |
| 20260507025353 | 39 | 321 | 0.0 | 0.0 | 0.00 | 0.00 | 0.00 | 62 | 1013.3 |
| 20260507024508 | 39 | 321 | 0.0 | 0.0 | 0.00 | 0.00 | 0.00 | 62 | 1013.3 |
| 20260507024358 | 40 | 321 | 0.0 | 0.0 | 0.00 | 0.00 | 0.00 | 62 | 1013.3 |
| 20260507023333 | 40 | 321 | 0.0 | 0.0 | 0.00 | 0.00 | 0.00 | 61 | 1013.2 |
| 20260507023102 | 39 | 321 | 0.0 | 0.0 | 0.00 | 0.00 | 0.00 | 62 | 1013.3 |
| 20260507022326 | 40 | 321 | 0.0 | 0.0 | 0.00 | 0.00 | 0.00 | 62 | 1013.1 |
| 20260507021503 | 39 | 321 | 0.0 | 0.0 | 0.00 | 0.00 | 0.00 | 62 | 1013.3 |
| 20260507021327 | 40 | 321 | 0.0 | 0.0 | 0.00 | 0.00 | 0.00 | 62 | 1013.3 |
| 20260507020347 | 41 | 321 | 0.0 | 0.0 | 0.00 | 0.00 | 0.00 | 61 | 1013.2 |
| 20260507020116 | 40 | 321 | 0.0 | 0.0 | 0.00 | 0.00 | 0.00 | 60 | 1013.3 |
| 20260507015401 | 41 | 321 | 0.0 | 0.0 | 0.00 | 0.00 | 0.00 | 60 | 1013.2 |
| 20260507014503 | 41 | 321 | 0.0 | 2.0 | 0.00 | 0.00 | 0.00 | 59 | 1013.2 |
| 20260507013241 | 42 | 321 | 2.0 | 3.0 | 0.00 | 0.00 | 0.00 | 58 | 1013.1 |
| 20260507013102 | 41 | 321 | 2.0 | 4.0 | 0.00 | 0.00 | 0.00 | 59 | 1013.2 |
| 20260507012245 | 42 | 319 | 2.0 | 4.0 | 0.00 | 0.00 | 0.00 | 58 | 1013.2 |
| 20260507011509 | 41 | 326 | 2.0 | 6.0 | 0.00 | 0.00 | 0.00 | 58 | 1013.2 |
| 20260507011234 | 42 | 325 | 3.0 | 5.0 | 0.00 | 0.00 | 0.00 | 58 | 1013.2 |
| 20260507010233 | 43 | 302 | 5.0 | 8.0 | 0.00 | 0.00 | 0.00 | 55 | 1013.2 |
| 20260507010104 | 42 | 308 | 4.0 | 9.0 | 0.00 | 0.00 | 0.00 | 55 | 1013.3 |
| 20260507005249 | 43 | 304 | 7.0 | 10.0 | 0.00 | 0.00 | 0.00 | 54 | 1013.3 |
| 20260507004503 | 43 | 317 | 8.0 | 13.0 | 0.00 | 0.00 | 0.00 | 53 | 1013.3 |
| 20260507004213 | 44 | 316 | 9.0 | 12.0 | 0.00 | 0.00 | 0.00 | 54 | 1013.2 |
| 20260507003143 | 44 | 322 | 7.0 | 12.0 | 0.00 | 0.00 | 0.00 | 53 | 1013.3 |
| 20260507003102 | 44 | 313 | 10.0 | 13.0 | 0.00 | 0.00 | 0.00 | 54 | 1013.3 |
| 20260507002111 | 45 | 326 | 9.0 | 16.0 | 0.00 | 0.00 | 0.00 | 52 | 1013.3 |
| 20260507001504 | 44 | 311 | 11.0 | 16.0 | 0.00 | 0.00 | 0.00 | 54 | 1013.5 |
| 20260507001104 | 45 | 307 | 10.0 | 16.0 | 0.00 | 0.00 | 0.00 | 52 | 1013.5 |
| 20260506234920 | 45 | 304 | 13.0 | 22.0 | 0.00 | 0.00 | 0.00 | 53 | 1013.5 |
| 20260506234502 | 44 | 304 | 15.0 | 23.0 | 0.00 | 0.00 | 0.00 | 53 | 1013.5 |
| 20260506233112 | 44 | 261 | 11.0 | 16.0 | 0.00 | 0.00 | 0.00 | 53 | 1013.7 |
| 20260506232737 | 44 | 310 | 11.0 | 17.0 | 0.00 | 0.00 | 0.00 | 55 | 1013.6 |
| 20260506231737 | 45 | 331 | 10.0 | 17.0 | 0.00 | 0.00 | 0.00 | 55 | 1013.6 |
| 20260506231502 | 44 | 305 | 9.0 | 17.0 | 0.00 | 0.00 | 0.00 | 53 | 1013.7 |
| 20260506230737 | 45 | 310 | 11.0 | 16.0 | 0.00 | 0.00 | 0.00 | 54 | 1013.6 |
| 20260506230103 | 44 | 326 | 13.0 | 18.0 | 0.00 | 0.00 | 0.00 | 53 | 1013.7 |
| 20260506225712 | 45 | 298 | 11.0 | 19.0 | 0.00 | 0.00 | 0.00 | 52 | 1013.6 |
| 20260506224502 | 44 | 305 | 16.0 | 21.0 | 0.00 | 0.00 | 0.00 | 53 | 1013.7 |
| 20260506223554 | 45 | 304 | 12.0 | 22.0 | 0.00 | 0.00 | 0.00 | 51 | 1013.6 |
| 20260506223106 | 45 | 330 | 11.0 | 18.0 | 0.00 | 0.00 | 0.00 | 53 | 1013.6 |
| 20260506221612 | 45 | 284 | 14.0 | 18.0 | 0.00 | 0.00 | 0.00 | 53 | 1013.6 |
| 20260506221456 | 45 | 309 | 10.0 | 17.0 | 0.00 | 0.00 | 0.00 | 53 | 1013.6 |
| 20260506220437 | 45 | 326 | 11.0 | 20.0 | 0.00 | 0.00 | 0.00 | 53 | 1013.7 |
| 20260506220002 | 45 | 310 | 11.0 | 21.0 | 0.00 | 0.00 | 0.00 | 52 | 1013.8 |
| 20260506215452 | 45 | 318 | 11.0 | 20.0 | 0.00 | 0.00 | 0.00 | 53 | 1013.7 |
| 20260506214603 | 44 | 300 | 9.0 | 18.0 | 0.00 | 0.00 | 0.00 | 55 | 1013.9 |
| 20260506214510 | 44 | 330 | 11.0 | 17.0 | 0.00 | 0.00 | 0.00 | 53 | 1013.8 |
| 20260506213508 | 45 | 300 | 11.0 | 23.0 | 0.00 | 0.00 | 0.00 | 55 | 1013.9 |
| 20260506213003 | 44 | 304 | 9.0 | 24.0 | 0.00 | 0.00 | 0.00 | 54 | 1014.0 |
| 20260506212525 | 45 | 309 | 11.0 | 23.0 | 0.00 | 0.00 | 0.00 | 54 | 1013.9 |
| 20260506211603 | 43 | 316 | 8.0 | 18.0 | 0.00 | 0.00 | 0.00 | 54 | 1014.1 |
| 20260506211512 | 43 | 294 | 10.0 | 18.0 | 0.00 | 0.00 | 0.00 | 57 | 1014.1 |
| 20260506210450 | 43 | 340 | 12.0 | 18.0 | 0.00 | 0.00 | 0.00 | 55 | 1014.1 |
| 20260506210003 | 43 | 311 | 12.0 | 19.0 | 0.00 | 0.00 | 0.00 | 56 | 1014.3 |
| 20260506205506 | 43 | 307 | 11.0 | 18.0 | 0.00 | 0.00 | 0.00 | 55 | 1014.3 |
| 20260506204604 | 43 | 303 | 13.0 | 19.0 | 0.00 | 0.00 | 0.00 | 57 | 1014.4 |
| 20260506204436 | 43 | 307 | 11.0 | 19.0 | 0.00 | 0.00 | 0.00 | 57 | 1014.3 |
| 20260506203428 | 43 | 277 | 14.0 | 19.0 | 0.00 | 0.00 | 0.00 | 58 | 1014.5 |
| 20260506203002 | 42 | 280 | 14.0 | 20.0 | 0.00 | 0.00 | 0.00 | 56 | 1014.5 |
| 20260506202422 | 43 | 293 | 10.0 | 16.0 | 0.00 | 0.00 | 0.00 | 57 | 1014.5 |
| 20260506201602 | 42 | 307 | 10.0 | 17.0 | 0.00 | 0.00 | 0.00 | 62 | 1014.5 |
| 20260506201444 | 42 | 331 | 9.0 | 16.0 | 0.00 | 0.00 | 0.00 | 60 | 1014.5 |
| 20260506200003 | 42 | 333 | 11.0 | 17.0 | 0.00 | 0.00 | 0.00 | 62 | 1014.6 |
| 20260506195315 | 42 | 306 | 10.0 | 16.0 | 0.00 | 0.00 | 0.00 | 61 | 1014.6 |
| 20260506194603 | 41 | 307 | 12.0 | 17.0 | 0.00 | 0.00 | 0.00 | 60 | 1014.6 |
| 20260506193055 | 41 | 314 | 11.0 | 16.0 | 0.00 | 0.00 | 0.00 | 59 | 1014.6 |
| 20260506193002 | 41 | 306 | 12.0 | 17.0 | 0.00 | 0.00 | 0.00 | 60 | 1014.6 |
| 20260506192103 | 42 | 287 | 9.0 | 16.0 | 0.00 | 0.00 | 0.00 | 59 | 1014.6 |
| 20260506191603 | 41 | 316 | 10.0 | 17.0 | 0.00 | 0.00 | 0.00 | 60 | 1014.7 |
| 20260506191027 | 42 | 311 | 12.0 | 19.0 | 0.00 | 0.00 | 0.00 | 60 | 1014.7 |
| 20260506190029 | 42 | 285 | 11.0 | 19.0 | 0.00 | 0.00 | 0.00 | 60 | 1014.7 |
| 20260506190007 | 41 | 291 | 14.0 | 20.0 | 0.00 | 0.00 | 0.00 | 60 | 1014.7 |
| 20260506185024 | 42 | 283 | 11.0 | 17.0 | 0.00 | 0.00 | 0.00 | 62 | 1014.6 |
| 20260506184613 | 41 | 295 | 13.0 | 18.0 | 0.00 | 0.00 | 0.00 | 59 | 1014.8 |
| 20260506184021 | 41 | 315 | 12.0 | 20.0 | 0.00 | 0.00 | 0.00 | 61 | 1014.7 |
| 20260506183009 | 40 | 297 | 13.0 | 21.0 | 0.00 | 0.00 | 0.00 | 62 | 1014.9 |
| 20260506182955 | 41 | 293 | 11.0 | 20.0 | 0.00 | 0.00 | 0.00 | 62 | 1014.9 |
| 20260506181954 | 41 | 311 | 10.0 | 15.0 | 0.00 | 0.00 | 0.00 | 60 | 1014.9 |
| 20260506181624 | 40 | 277 | 10.0 | 16.0 | 0.00 | 0.00 | 0.00 | 64 | 1015.0 |